Погода в Горячем Ключе

Россия / Омская область     55°01′46″N   73°09′09″E
темп.,
°C
ветер,
м/с
пор.,
м/с
влажн.,
%
обл.,
%
осадки,
мм/ч
давл.,
гПа
погр.,
м
28 июля, ср
ср2800:00+13ююз346478 0.0 101048
03:00+12зюз357773 0.0 100975
06:00+15ююз3665100 0.0 1008150
09:00+20юз355050 0.0 1008562
12:00+24юз6631100 0.0 10082528
15:00+23юз6744100 0.0 10062009
18:00+20з686718 2.5 1006820
21:00+16зюз3780100 0.4 1006196
29 июля, чт
чт2900:00+14зюз3495100 3.6 1007176
03:00+12зсз37945 0.3 1007181
06:00+11сз410885 0.3 1008311
09:00+14сз56650 0.0 1009683
12:00+18зсз56433 0.0 10101707
15:00+20зсз45345 0.0 10092108
18:00+21з45319 0.0 10092407
21:00+15зюз48485 0.0 1009154
30 июля, пт
пт3000:00+13зюз4105725 0.0 1010176
03:00+13зюз410555 0.0 1010218
06:00+12юз41163100 0.0 1011224
09:00+18зюз61147100 0.0 1011582
12:00+23зюз7935100 0.0 10111856
15:00+25зюз893193 0.0 10102695
18:00+25зюз7103033 0.0 10092843
21:00+20юз4845100 0.0 1009143
31 июля, сб
сб3100:00+18з61456100 0.0 1009656
03:00+16юз71274100 0.3 1009671
06:00+15ю51389100 1.7 1008470
09:00+14ю61390100 2.4 1008678
12:00+20ююз566562 2.5 10071133
15:00+24з244896 0.0 10071765
18:00+22ссз555956 0.0 1009784
21:00+19ссв347124 0.0 1010125
1 августа, вс
вс100:00+15с22860 0.0 101123
03:00+14всв2288100 0.0 101116
06:00+14всв11884 0.0 101212
09:00+20ююв116413 0.0 1011405
12:00+25ююз334972 0.0 10101344
15:00+26ююз2345100 0.0 10091691
18:00+25ю1155100 0.1 100879
21:00+18з2595100 2.9 1008172